Abakan, Russia

6:31 AM +07 on November 12, 2019 (GMT +0700)
Abakan

Weather History for UNAA - September, 2019

Change the Weather History Date:

Tuesday, September 10, 2019

  Actual Average (WUND) Record (WUND)
Temperature  
Mean Temperature 58 °F -  
Max Temperature 64 °F - - (-1)
Min Temperature 51 °F - - (-1)
Degree Days  
Heating Degree Days 8    
Growing Degree Days 8 (Base 50)    
Moisture  
Dew Point 49 °F    
Average Humidity 77    
Maximum Humidity 94    
Minimum Humidity 52    
Precipitation  
Precipitation 0.00 in - - ()
Sea Level Pressure  
Sea Level Pressure 29.90 in    
Wind  
Wind Speed 6 mph ()    
Max Wind Speed 13 mph    
Max Gust Speed -    
Visibility 6.2 miles    
Events Rain    
Averages and records for this station are not official NWS values.
T = Trace of Precipitation, MM = Missing Value Source: Averaged Metar Reports

Daily Weather History Graph

Daily Weather History Graph

Search for Another Location

Airport or City:

Astronomy

Sep. 10, 2019 Rise Set
Actual Time 6:17 AM +07 7:24 PM +07
Civil Twilight 5:41 AM +07 8:00 PM +07
Nautical Twilight 4:58 AM +07 8:43 PM +07
Astronomical Twilight 4:10 AM +07 9:31 PM +07
Moon 6:19 PM +07 (9/10) 1:33 AM +07 (9/10)
Length of Visible Light 14h 18m
Length of Day
13h 06m
Waxing Gibbous, 86% of the Moon is Illuminated
Sep 10
Waxing Gibbous
Sep 14
Full
Sep 22
Last Quarter
Sep 29
New
Oct 5
First Quarter

Hourly Weather History & Observations

Time (+07) Temp. Dew Point Humidity Pressure Visibility Wind Dir Wind Speed Gust Speed Precip Events Conditions
12:00 AM 53.6 °F 51.8 °F 94% 29.86 in 6.2 mi SW 8.9 mph - N/A Rain Light Rain Showers
1:00 AM 53.6 °F 51.8 °F 94% 29.83 in 6.2 mi SSW 2.2 mph - N/A Rain Light Rain Showers
1:30 AM 53.6 °F 51.8 °F 94% 29.83 in 6.2 mi Variable 2.2 mph - N/A Rain Light Rain Showers
2:00 AM 53.6 °F 51.8 °F 94% 29.86 in 6.2 mi NW 6.7 mph - N/A Rain Light Rain Showers
2:30 AM 53.6 °F 51.8 °F 94% 29.86 in 6.2 mi NW 2.2 mph - N/A   Scattered Clouds
3:00 AM 53.6 °F 51.8 °F 94% 29.86 in 6.2 mi SE 6.7 mph - N/A   Scattered Clouds
3:30 AM 51.8 °F 50.0 °F 94% 29.86 in 6.2 mi SW 6.7 mph - N/A   Scattered Clouds
4:00 AM 51.8 °F 50.0 °F 94% 29.86 in - SSW 6.7 mph - N/A   Clear
4:30 AM 51.8 °F 48.2 °F 88% 29.86 in - SSW 6.7 mph - N/A   Clear
5:00 AM 51.8 °F 48.2 °F 88% 29.86 in - SSW 6.7 mph - N/A   Clear
5:30 AM 51.8 °F 48.2 °F 88% 29.89 in - SW 6.7 mph - N/A   Clear
6:00 AM 51.8 °F 48.2 °F 88% 29.89 in 6.2 mi SSW 4.5 mph - N/A   Scattered Clouds
6:30 AM 51.8 °F 48.2 °F 88% 29.89 in 6.2 mi SSW 6.7 mph - N/A   Scattered Clouds
7:00 AM 51.8 °F 48.2 °F 88% 29.89 in 6.2 mi SW 8.9 mph - N/A   Scattered Clouds
7:30 AM 51.8 °F 48.2 °F 88% 29.89 in - SSW 6.7 mph - N/A   Clear
8:00 AM 51.8 °F 48.2 °F 88% 29.89 in - SW 4.5 mph - N/A   Clear
8:30 AM 51.8 °F 48.2 °F 88% 29.92 in - SW 8.9 mph - N/A   Clear
9:00 AM 55.4 °F 48.2 °F 77% 29.92 in - SW 8.9 mph - N/A   Clear
9:30 AM 55.4 °F 48.2 °F 77% 29.92 in - SW 8.9 mph - N/A   Clear
10:00 AM 55.4 °F 48.2 °F 77% 29.92 in - SW 8.9 mph - N/A   Clear
12:00 PM 62.6 °F 46.4 °F 55% 29.92 in 6.2 mi WSW 6.7 mph - N/A   Scattered Clouds
12:30 PM 62.6 °F 46.4 °F 55% 29.92 in 6.2 mi SW 6.7 mph - N/A   Scattered Clouds
1:00 PM 64.4 °F 46.4 °F 52% 29.92 in - WSW 8.9 mph - N/A   Clear
1:30 PM 62.6 °F 48.2 °F 59% 29.92 in - South 11.2 mph - N/A   Clear
2:00 PM 59.0 °F 50.0 °F 72% 29.92 in 5.6 mi SSW 13.4 mph - N/A Rain Light Rain Showers
2:30 PM 60.8 °F 51.8 °F 72% 29.92 in 6.2 mi South 6.7 mph - N/A   Scattered Clouds
3:00 PM 62.6 °F 51.8 °F 68% 29.92 in - SSE 6.7 mph - N/A   Clear
3:30 PM 64.4 °F 51.8 °F 64% 29.89 in - SSE 8.9 mph - N/A   Clear
4:00 PM 62.6 °F 51.8 °F 68% 29.92 in - SSE 11.2 mph - N/A   Clear
4:30 PM 62.6 °F 50.0 °F 63% 29.89 in - SE 8.9 mph - N/A   Clear
5:00 PM 64.4 °F 48.2 °F 56% 29.92 in - SSW 13.4 mph - N/A   Clear
5:30 PM 62.6 °F 48.2 °F 59% 29.92 in - South 11.2 mph - N/A   Clear
6:00 PM 62.6 °F 50.0 °F 63% 29.92 in - South 8.9 mph - N/A   Clear
6:30 PM 62.6 °F 48.2 °F 59% 29.92 in - South 11.2 mph - N/A   Clear
7:00 PM 59.0 °F 48.2 °F 67% 29.92 in - South 8.9 mph - N/A   Clear
7:30 PM 57.2 °F 48.2 °F 72% 29.92 in - South 8.9 mph - N/A   Clear
8:00 PM 57.2 °F 48.2 °F 72% 29.92 in - South 6.7 mph - N/A   Clear
8:30 PM 53.6 °F 46.4 °F 77% 29.95 in - SSE 6.7 mph - N/A   Clear
9:00 PM 59.0 °F 44.6 °F 59% 29.95 in - West 6.7 mph - N/A   Clear
9:30 PM 53.6 °F 46.4 °F 77% 29.95 in - South 2.2 mph - N/A   Clear
10:00 PM 51.8 °F 44.6 °F 76% 29.95 in - SSW 6.7 mph - N/A   Clear
10:30 PM 53.6 °F 44.6 °F 72% 29.95 in - SW 6.7 mph - N/A   Clear
11:00 PM 51.8 °F 46.4 °F 82% 29.95 in - West 6.7 mph - N/A   Clear
11:30 PM 53.6 °F 46.4 °F 77% 29.98 in - West 6.7 mph - N/A   Clear